Weather in Krasnie Chetai

Russia / Chuvash Republic     55°41′47″N   46°09′32″E
temp.,
°C
wind,
m/s
gust,
m/s
humid.,
%
clouds,
%
prec.,
mm/h
press.,
hPa
HPBL,
m
16 may, sun
sun1600:00+17s37776 0.0 1014113
03:00+15sse2283100 0.0 101413
06:00+17s247764 0.0 1014139
09:00+21ssw4664100 0.0 1014437
12:00+25ssw5760100 0.0 10151047
15:00+21wnw2480100 0.7 1015104
18:00+20sw2777100 1.6 1015259
21:00+17sw239136 1.9 101554
17 may, mon
mon1700:00+15ssw228665 0.1 101614
03:00+15sw118991 0.4 101711
06:00+18se0081100 0.0 101751
09:00+22ene116885 0.0 1018386
12:00+26se125417 0.0 1017982
15:00+27wsw234941 0.0 10171201
18:00+25nne126367 0.0 101616
21:00+20e227733 0.0 101717
18 may, tue
tue1800:00+17se227270 0.0 101713
03:00+17ese226547 0.0 101722
06:00+18ese257382 0.0 1017111
09:00+23ese455854 0.0 1017385
12:00+28se463948 0.0 10172080
15:00+29se35395 0.0 10161826
18:00+24ese476222 0.0 1016131
21:00+19ese410525 0.0 1017123
19 may, wed
wed1900:00+18ese5137611 0.0 1017192
03:00+16ese4108617 0.0 1017157
06:00+18ese411815 0.0 1017267
09:00+23ese69652 0.0 1016472
12:00+26ese79565 0.0 10161127
15:00+26ese710570 0.0 10151035
18:00+23e713692 0.0 1015418
21:00+17e410781 0.1 1014177
20 may, thu
thu2000:00+17ese6146975 0.0 1014259
03:00+17se613705 0.0 1014297
06:00+17ese613780 0.0 1013341
09:00+22se69611 0.0 1013902
12:00+24se710550 0.0 10121553
15:00+19ssw71184100 1.5 1014421
18:00+18ssw5980100 1.0 1015502
21:00+14sse3792100 1.0 1016151